Retour au catalogue

QIANFAN-147

ActifCommunicationsPO
NORAD 69106·PAYLOAD·🇨🇳 China

Lancé May 17, 2026 depuis Wenchang Space Launch Site

Loading…

Prochains Passages (prochaines 24 heures)

TLE

FraisSource: Space-Track

Époque: Sep 14, 2026, 12:54 UTC

1 69106U 26108C   26257.53764539  .00000101  00000-0  13747-3 0  9990
2 69106  89.0191  13.1296 0002077 103.4897 256.6486 13.51023984 16495

Suivez QIANFAN-147 en temps réel avec AllMySat

Download on the App Store